User: anonymous   Login
Location: Digermulen
(68.3170°N, 15.0000°E)
Time: 08:41:09
(UTC+02:00)
Language:

Tiangong 2 - Orbit

View from above orbital plane
View from above orbital plane
View from above satellite
View from above satellite

Ground track
Ground track

The orbit data is extracted from the following two-line orbital elements,

1 41765U 16057A   19114.80105324  .00003849  00000-0  48408-4 0  9993
2 41765  42.7831 285.3142 0008815 260.5790 305.5862 15.61320759148692
Epoch (UTC): 24 April 2019 19:13:31
Eccentricity: 0.0008815
inclination: 42.7831°
perigee height: 378 km
apogee height: 390 km
right ascension of ascending node: 285.3142°
argument of perigee: 260.5790°
revolutions per day: 15.61320759
mean anomaly at epoch: 305.5862°
orbit number at epoch: 14869

The dashed part of the orbit path shows where the satellite is in the earth's shadow,  

DLR